GW6068 Weather Reports


time (UTC)temp
C
wind
direction
speed
KPH
gust
KPH
rain 1hr
cm
rain 24hr
cm
rain mn
cm
humidity
%
barometer
mb
20260504035306 10 330 24.1 46.7 0.00 0.00 0.00 67 1055.7
20260504034803 10 325 14.5 46.7 0.00 0.00 0.00 66 1055.9
20260504034300 10 311 25.7 41.8 0.00 0.00 0.00 65 1055.6
20260504033757 10 316 27.4 41.8 0.00 0.00 0.00 62 1055.4
20260504033255 11 340 17.7 35.4 0.00 0.00 0.00 60 1055.6
20260504032751 11 345 9.7 41.8 0.00 0.00 0.00 58 1055.5
20260504032249 11 346 38.6 40.2 0.00 0.00 0.00 57 1055.1
20260504031745 11 352 16.1 46.7 0.00 0.00 0.00 57 1055.3
20260504031243 11 3 14.5 43.5 0.00 0.00 0.00 57 1055.2
20260504030738 11 351 11.3 43.5 0.00 0.00 0.00 58 1055.2
20260504030236 11 349 17.7 46.7 0.00 0.00 0.00 58 1055.0
20260504025732 11 355 17.7 51.5 0.00 0.00 0.00 58 1055.0
20260504025229 11 356 24.1 45.1 0.00 0.00 0.00 58 1055.1
20260504024726 11 358 29.0 54.7 0.00 0.00 0.00 58 1055.4
20260504024223 11 344 22.5 48.3 0.00 0.00 0.00 59 1055.3
20260504023720 11 356 11.3 37.0 0.00 0.00 0.00 60 1054.9
20260504023216 11 0 16.1 43.5 0.00 0.00 0.00 61 1054.7
20260504022712 11 0 32.2 46.7 0.00 0.00 0.00 60 1054.8
20260504022208 12 333 20.9 48.3 0.00 0.00 0.00 59 1054.4
20260504021706 12 355 24.1 41.8 0.00 0.00 0.00 57 1054.2
20260504021202 13 352 11.3 35.4 0.00 0.00 0.00 55 1053.6
20260504020659 13 347 35.4 51.5 0.00 0.00 0.00 53 1054.4
20260504020155 15 10 19.3 64.4 0.00 0.00 0.00 46 1053.3
20260504015652 18 330 29.0 33.8 0.00 0.00 0.00 38 1052.5
20260504015148 17 325 11.3 16.1 0.00 0.00 0.00 39 1052.1
20260504014644 17 313 6.4 8.0 0.00 0.00 0.00 39 1051.8
20260504014142 17 288 4.8 4.8 0.00 0.00 0.00 38 1051.9
20260504013639 18 292 6.4 12.9 0.00 0.00 0.00 37 1051.8
20260504013136 18 319 9.7 16.1 0.00 0.00 0.00 37 1052.2
20260504012633 18 278 3.2 9.7 0.00 0.00 0.00 37 1052.1
20260504012131 18 279 8.0 8.0 0.00 0.00 0.00 36 1052.2
20260504011628 18 298 8.0 9.7 0.00 0.00 0.00 36 1052.1
20260504011124 18 286 4.8 9.7 0.00 0.00 0.00 36 1052.3
20260504010620 18 292 4.8 16.1 0.00 0.00 0.00 36 1052.2
20260504010116 18 293 8.0 16.1 0.00 0.00 0.00 36 1052.5
20260504005613 18 288 4.8 9.7 0.00 0.00 0.00 37 1052.6
20260504005110 19 302 6.4 17.7 0.00 0.00 0.00 36 1052.5
20260504004608 19 312 12.9 22.5 0.00 0.00 0.00 35 1052.3
20260504004105 19 305 9.7 14.5 0.00 0.00 0.00 36 1052.3
20260504003601 20 310 12.9 19.3 0.00 0.00 0.00 35 1052.6
20260504003058 20 312 20.9 29.0 0.00 0.00 0.00 34 1052.6
20260504002555 20 329 12.9 14.5 0.00 0.00 0.00 35 1052.7
20260504002052 20 308 8.0 14.5 0.00 0.00 0.00 34 1052.7
20260504001550 20 333 8.0 19.3 0.00 0.00 0.00 34 1052.3
20260504001045 20 332 9.7 22.5 0.00 0.00 0.00 33 1052.7
20260504000543 20 357 6.4 17.7 0.00 0.00 0.00 33 1052.9
20260504000040 20 326 12.9 12.9 0.00 0.00 0.00 33 1052.9
20260503235538 20 325 19.3 20.9 0.00 0.00 0.00 32 1052.9
20260503235035 20 324 11.3 20.9 0.00 0.00 0.00 32 1052.9
20260503234532 20 326 11.3 24.1 0.00 0.00 0.00 31 1053.2
20260503234031 21 306 20.9 27.4 0.00 0.00 0.00 29 1053.3
20260503233527 22 286 14.5 30.6 0.00 0.00 0.00 25 1053.1
20260503233023 22 273 20.9 29.0 0.00 0.00 0.00 24 1053.0
20260503232520 22 266 22.5 33.8 0.00 0.00 0.00 23 1053.2
20260503232018 22 271 29.0 37.0 0.00 0.00 0.00 23 1053.4
20260503231515 22 273 29.0 33.8 0.00 0.00 0.00 23 1053.6
20260503231012 22 274 24.1 32.2 0.00 0.00 0.00 23 1053.4
20260503230508 22 272 30.6 37.0 0.00 0.00 0.00 22 1053.6
20260503230006 23 275 24.1 40.2 0.00 0.00 0.00 22 1053.7
20260503225503 23 280 32.2 40.2 0.00 0.00 0.00 22 1053.9
20260503224958 23 271 27.4 30.6 0.00 0.00 0.00 22 1054.0
20260503224455 23 309 24.1 37.0 0.00 0.00 0.00 22 1054.1
20260503223953 23 278 24.1 29.0 0.00 0.00 0.00 22 1054.3
20260503223451 23 273 29.0 33.8 0.00 0.00 0.00 22 1054.3
20260503222946 23 290 19.3 33.8 0.00 0.00 0.00 22 1054.5
20260503222445 23 269 27.4 35.4 0.00 0.00 0.00 22 1054.7
20260503221943 23 272 27.4 38.6 0.00 0.00 0.00 22 1054.7
20260503221440 23 275 37.0 49.9 0.00 0.00 0.00 22 1054.8
20260503220937 23 269 27.4 43.5 0.00 0.00 0.00 21 1055.0
20260503220433 23 268 35.4 40.2 0.00 0.00 0.00 21 1055.0
20260503215931 23 275 32.2 41.8 0.00 0.00 0.00 21 1055.2
20260503215427 23 277 24.1 41.8 0.00 0.00 0.00 21 1055.3
20260503214925 24 274 27.4 33.8 0.00 0.00 0.00 22 1055.2
20260503214423 23 264 32.2 38.6 0.00 0.00 0.00 22 1055.4
20260503213920 23 267 29.0 43.5 0.00 0.00 0.00 21 1055.4
20260503213418 23 267 29.0 35.4 0.00 0.00 0.00 22 1055.7
20260503212914 23 280 38.6 49.9 0.00 0.00 0.00 22 1055.8
20260503212412 23 273 30.6 51.5 0.00 0.00 0.00 23 1055.9
20260503211909 24 268 30.6 46.7 0.00 0.00 0.00 21 1056.0
20260503211406 23 264 29.0 37.0 0.00 0.00 0.00 21 1056.2
20260503210901 23 257 30.6 40.2 0.00 0.00 0.00 21 1056.3
20260503210358 23 275 41.8 43.5 0.00 0.00 0.00 21 1056.4
20260503205852 23 273 25.7 41.8 0.00 0.00 0.00 21 1056.5
20260503205350 23 263 30.6 37.0 0.00 0.00 0.00 21 1056.8
20260503204846 23 260 25.7 40.2 0.00 0.00 0.00 21 1057.0
20260503204344 22 266 24.1 35.4 0.00 0.00 0.00 22 1057.1
20260503203841 23 265 24.1 38.6 0.00 0.00 0.00 22 1057.1
20260503203338 23 256 35.4 45.1 0.00 0.00 0.00 21 1057.4
20260503202835 23 262 20.9 45.1 0.00 0.00 0.00 21 1057.6
20260503202333 23 255 25.7 46.7 0.00 0.00 0.00 21 1057.6
20260503201832 23 259 35.4 49.9 0.00 0.00 0.00 21 1057.7
20260503201328 23 266 30.6 38.6 0.00 0.00 0.00 21 1057.8
20260503200826 23 256 29.0 45.1 0.00 0.00 0.00 21 1057.8
20260503200321 22 273 27.4 40.2 0.00 0.00 0.00 21 1057.9
20260503195819 23 277 29.0 38.6 0.00 0.00 0.00 20 1058.1
20260503195315 23 269 29.0 40.2 0.00 0.00 0.00 19 1058.1
20260503194813 22 285 25.7 35.4 0.00 0.00 0.00 22 1058.2
20260503194308 23 275 30.6 38.6 0.00 0.00 0.00 21 1058.6
20260503193804 22 266 22.5 29.0 0.00 0.00 0.00 22 1058.3
20260503193300 22 279 30.6 37.0 0.00 0.00 0.00 21 1058.7
20260503192756 22 272 33.8 41.8 0.00 0.00 0.00 21 1058.9
20260503192252 22 274 29.0 41.8 0.00 0.00 0.00 22 1058.9
20260503191749 22 276 24.1 30.6 0.00 0.00 0.00 22 1058.9
20260503191246 21 284 29.0 38.6 0.00 0.00 0.00 22 1059.1
20260503190743 22 279 16.1 33.8 0.00 0.00 0.00 22 1059.4
20260503190239 22 283 30.6 46.7 0.00 0.00 0.00 22 1059.3
20260503185737 22 264 40.2 43.5 0.00 0.00 0.00 20 1059.7
20260503185232 22 276 33.8 33.8 0.00 0.00 0.00 21 1059.8
20260503184727 22 301 27.4 38.6 0.00 0.00 0.00 22 1059.9
20260503184224 22 279 25.7 38.6 0.00 0.00 0.00 21 1060.0
20260503183720 23 280 32.2 40.2 0.00 0.00 0.00 19 1060.3
20260503183217 21 306 19.3 41.8 0.00 0.00 0.00 22 1060.2
20260503182716 21 273 32.2 41.8 0.00 0.00 0.00 22 1060.3
20260503182214 22 273 27.4 38.6 0.00 0.00 0.00 23 1060.5
20260503181709 21 291 27.4 38.6 0.00 0.00 0.00 23 1060.5
20260503181207 22 273 33.8 43.5 0.00 0.00 0.00 23 1060.7
20260503180703 22 280 25.7 41.8 0.00 0.00 0.00 23 1060.8
20260503180202 22 263 29.0 35.4 0.00 0.00 0.00 23 1061.0
20260503175658 21 264 30.6 45.1 0.00 0.00 0.00 23 1061.1
20260503175156 21 269 24.1 38.6 0.00 0.00 0.00 23 1061.3
20260503174652 21 263 33.8 46.7 0.00 0.00 0.00 23 1061.2
20260503174150 21 275 29.0 32.2 0.00 0.00 0.00 24 1061.4
20260503173644 21 272 22.5 33.8 0.00 0.00 0.00 24 1061.7
20260503173141 21 287 20.9 35.4 0.00 0.00 0.00 24 1062.0
20260503172638 21 272 40.2 45.1 0.00 0.00 0.00 24 1061.9
20260503172135 21 265 27.4 40.2 0.00 0.00 0.00 25 1062.2
20260503171631 21 272 37.0 46.7 0.00 0.00 0.00 24 1062.3
20260503171129 21 261 25.7 29.0 0.00 0.00 0.00 24 1062.1
20260503170626 20 269 24.1 38.6 0.00 0.00 0.00 24 1062.6
20260503170123 20 267 33.8 46.7 0.00 0.00 0.00 25 1062.6
20260503150514 13 220 16.1 17.7 0.00 0.00 0.00 38 1065.6
20260503131407 8 265 8.0 9.7 0.00 0.00 0.00 53 1067.3
20260503130904 8 261 6.4 6.4 0.00 0.00 0.00 53 1067.4
20260503130402 8 301 3.2 4.8 0.00 0.00 0.00 56 1067.5
20260503110806 2 12 1.6 6.4 0.00 0.00 0.00 68 1068.4
20260503110303 2 332 3.2 4.8 0.00 0.00 0.00 69 1068.5
20260503100229 3 320 3.2 6.4 0.00 0.00 0.00 64 1068.8
20260503090153 0 326 8.0 8.0 0.00 0.00 0.00 74 1068.5
20260503081624 4 304 4.8 6.4 0.00 0.00 0.00 58 1068.5
20260503081121 5 318 4.8 11.3 0.00 0.00 0.00 58 1068.4
20260503080616 5 309 6.4 6.4 0.00 0.00 0.00 59 1068.7
20260503080113 5 335 3.2 4.8 0.00 0.00 0.00 59 1068.5
20260503072550 3 317 4.8 4.8 0.00 0.00 0.00 59 1068.8
20260503072048 4 283 4.8 6.4 0.00 0.00 0.00 58 1068.8
20260503071544 4 317 6.4 8.0 0.00 0.00 0.00 59 1068.9
20260503071041 3 297 3.2 6.4 0.00 0.00 0.00 60 1068.7
20260503070537 4 282 3.2 8.0 0.00 0.00 0.00 58 1068.9
20260503054957 8 31 1.6 4.8 0.00 0.00 0.00 47 1068.8
20260503054453 8 309 3.2 4.8 0.00 0.00 0.00 46 1069.2
20260503053951 9 339 4.8 6.4 0.00 0.00 0.00 45 1068.9
20260503053448 9 344 6.4 9.7 0.00 0.00 0.00 45 1068.8
20260503052945 9 354 4.8 6.4 0.00 0.00 0.00 45 1069.0
20260503052443 10 332 3.2 8.0 0.00 0.00 0.00 44 1069.0
20260503051938 10 25 3.2 8.0 0.00 0.00 0.00 43 1068.8
20260503051434 10 316 6.4 12.9 0.00 0.00 0.00 43 1069.0
20260503050932 10 357 11.3 12.9 0.00 0.00 0.00 43 1069.1
20260503050427 10 19 8.0 9.7 0.00 0.00 0.00 42 1069.0
20260503045926 10 0 12.9 16.1 0.00 0.00 0.00 41 1069.1
20260503045423 11 355 3.2 14.5 0.00 0.00 0.00 41 1069.2
20260503044919 11 355 11.3 19.3 0.00 0.00 0.00 41 1069.1
20260503044416 11 354 14.5 19.3 0.00 0.00 0.00 41 1069.0
20260503043914 11 338 4.8 17.7 0.00 0.00 0.00 40 1069.2
20260503043410 11 350 9.7 20.9 0.00 0.00 0.00 40 1069.1
20260503042907 11 353 11.3 24.1 0.00 0.00 0.00 39 1069.1
20260503042403 11 349 12.9 19.3 0.00 0.00 0.00 39 1069.2
20260503041859 11 4 19.3 24.1 0.00 0.00 0.00 38 1069.3
20260503041357 11 14 19.3 30.6 0.00 0.00 0.00 38 1069.2
20260503040854 11 2 9.7 22.5 0.00 0.00 0.00 39 1069.2
20260503040352 11 2 17.7 22.5 0.00 0.00 0.00 39 1069.2
20260503035848 11 351 4.8 25.7 0.00 0.00 0.00 39 1069.2